When you browse on this site, cookies collect data to enhance your experience and personalize the content and advertising you see.
Visit our Privacy Policy to learn more. By continuing to use the site, you agree to this use of cookies and data.
  • In Spain
  • List of Countries
  • For 7 days
  • Water Temperature
  • Satellite Maps
  • Weather Map
  • Weather Widgets
  • user-avatar
    Login

    Hourly Weather Gold Coast

    Today, 23 April, Tuesday

    Time Temperature Precipitation Wind Pressure Humidity
    00:00 +20°C° 0.2 mm 3 mps 763 mmHg 95%
    01:00 +20°C° 0.2 mm 3 mps 763 mmHg 95%
    02:00 +20°C° 0.1 mm 4 mps 763 mmHg 94%
    03:00 +20°C° 0.1 mm 4 mps 763 mmHg 94%
    04:00 +19°C° 0 mm 3 mps 762 mmHg 94%
    05:00 +20°C° 0.1 mm 3 mps 763 mmHg 93%
    06:00 +20°C° 0.1 mm 4 mps 763 mmHg 92%
    07:00 +20°C° 0.1 mm 4 mps 763 mmHg 91%
    08:00 +22°C° 0.1 mm 4 mps 764 mmHg 83%
    09:00 +23°C° 0.1 mm 4 mps 764 mmHg 74%
    10:00 +26°C° 0.1 mm 5 mps 764 mmHg 66%
    11:00 +26°C° 0.1 mm 5 mps 763 mmHg 65%
    12:00 +27°C° 0.1 mm 5 mps 763 mmHg 63%
    13:00 +27°C° 0.1 mm 5 mps 763 mmHg 61%
    14:00 +26°C° 0.1 mm 5 mps 763 mmHg 64%
    15:00 +26°C° 0.1 mm 5 mps 763 mmHg 66%
    16:00 +25°C° 0.1 mm 4 mps 762 mmHg 69%
    17:00 +23°C° 0 mm 4 mps 763 mmHg 73%
    18:00 +22°C° 0 mm 4 mps 763 mmHg 77%
    19:00 +21°C° 0 mm 4 mps 763 mmHg 81%
    20:00 +21°C° 0 mm 4 mps 764 mmHg 82%
    21:00 +20°C° 0 mm 4 mps 764 mmHg 84%
    22:00 +20°C° 0 mm 4 mps 764 mmHg 86%
    23:00 +20°C° 0 mm 3 mps 764 mmHg 87%

    Tomorrow, 24 April, Wednesday

    Time Temperature Precipitation Wind Pressure Humidity
    00:00 +20°C° 0 mm 3 mps 763 mmHg 88%
    01:00 +20°C° 0 mm 3 mps 763 mmHg 89%
    02:00 +20°C° 0 mm 3 mps 763 mmHg 89%
    03:00 +19°C° 0 mm 3 mps 763 mmHg 89%
    04:00 +19°C° 0 mm 3 mps 762 mmHg 88%
    05:00 +19°C° 0 mm 3 mps 763 mmHg 88%
    06:00 +20°C° 0 mm 3 mps 763 mmHg 87%
    07:00 +20°C° 0 mm 3 mps 763 mmHg 86%
    08:00 +22°C° 0 mm 3 mps 763 mmHg 78%
    09:00 +23°C° 0 mm 4 mps 763 mmHg 69%
    10:00 +26°C° 0 mm 4 mps 764 mmHg 60%
    11:00 +26°C° 0.1 mm 4 mps 763 mmHg 60%
    12:00 +27°C° 0.1 mm 4 mps 763 mmHg 59%
    13:00 +27°C° 0.1 mm 4 mps 762 mmHg 58%
    14:00 +26°C° 0.1 mm 4 mps 762 mmHg 63%
    15:00 +25°C° 0.1 mm 4 mps 762 mmHg 67%
    16:00 +25°C° 0.1 mm 4 mps 762 mmHg 72%
    17:00 +22°C° 0.1 mm 4 mps 762 mmHg 76%
    18:00 +21°C° 0.1 mm 4 mps 762 mmHg 81%
    19:00 +20°C° 0.1 mm 4 mps 763 mmHg 86%
    20:00 +20°C° 0.1 mm 3 mps 763 mmHg 86%
    21:00 +20°C° 0.1 mm 3 mps 763 mmHg 87%
    22:00 +19°C° 0.1 mm 3 mps 763 mmHg 87%
    23:00 +19°C° 0 mm 3 mps 763 mmHg 88%

    Day after tomorrow, 25 April, Thursday

    Time Temperature Precipitation Wind Pressure Humidity
    00:00 +19°C° 0 mm 3 mps 763 mmHg 88%
    01:00 +19°C° 0 mm 2 mps 762 mmHg 89%
    02:00 +18°C° 0 mm 2 mps 762 mmHg 89%
    03:00 +18°C° 0 mm 2 mps 762 mmHg 90%
    04:00 +18°C° 0 mm 2 mps 761 mmHg 91%
    05:00 +18°C° 0 mm 3 mps 762 mmHg 90%
    06:00 +18°C° 0 mm 3 mps 762 mmHg 90%
    07:00 +18°C° 0 mm 3 mps 762 mmHg 89%
    08:00 +20°C° 0 mm 3 mps 762 mmHg 79%
    09:00 +22°C° 0 mm 3 mps 762 mmHg 69%
    10:00 +25°C° 0 mm 3 mps 762 mmHg 59%
    11:00 +26°C° 0 mm 3 mps 762 mmHg 57%
    12:00 +26°C° 0 mm 3 mps 761 mmHg 56%
    13:00 +27°C° 0 mm 3 mps 760 mmHg 54%
    14:00 +26°C° 0 mm 3 mps 760 mmHg 57%
    15:00 +26°C° 0 mm 3 mps 760 mmHg 61%
    16:00 +25°C° 0 mm 3 mps 760 mmHg 64%
    17:00 +24°C° 0 mm 3 mps 760 mmHg 70%
    18:00 +21°C° 0 mm 3 mps 761 mmHg 76%
    19:00 +20°C° 0 mm 2 mps 761 mmHg 82%
    20:00 +19°C° 0 mm 2 mps 761 mmHg 83%
    21:00 +19°C° 0 mm 2 mps 762 mmHg 85%
    22:00 +20°C° 0 mm 1 mps 762 mmHg 86%
    23:00 +19°C° 0 mm 1 mps 761 mmHg 88%

    26 April, Friday

    Time Temperature Precipitation Wind Pressure Humidity
    00:00 +19°C° 0 mm 1 mps 761 mmHg 89%
    01:00 +19°C° 0 mm 1 mps 761 mmHg 90%
    02:00 +19°C° 0 mm 1 mps 760 mmHg 90%
    03:00 +19°C° 0 mm 1 mps 760 mmHg 91%
    04:00 +18°C° 0 mm 1 mps 760 mmHg 92%
    05:00 +19°C° 0 mm 1 mps 760 mmHg 91%
    06:00 +19°C° 0 mm 1 mps 760 mmHg 90%
    07:00 +18°C° 0 mm 2 mps 761 mmHg 89%
    08:00 +22°C° 0 mm 1 mps 761 mmHg 79%
    09:00 +25°C° 0 mm 1 mps 761 mmHg 69%
    10:00 +25°C° 0 mm 0 mps 761 mmHg 59%
    11:00 +28°C° 0 mm 1 mps 760 mmHg 55%
    12:00 +29°C° 0 mm 1 mps 759 mmHg 51%
    13:00 +29°C° 0 mm 2 mps 758 mmHg 47%
    14:00 +28°C° 0 mm 2 mps 758 mmHg 52%
    15:00 +28°C° 0 mm 2 mps 758 mmHg 56%
    16:00 +27°C° 0 mm 3 mps 757 mmHg 61%
    17:00 +25°C° 0 mm 3 mps 758 mmHg 69%
    18:00 +24°C° 0 mm 2 mps 758 mmHg 76%
    19:00 +21°C° 0 mm 2 mps 758 mmHg 84%
    20:00 +21°C° 0 mm 2 mps 759 mmHg 86%
    21:00 +20°C° 0 mm 2 mps 759 mmHg 88%
    22:00 +20°C° 0 mm 2 mps 759 mmHg 90%
    23:00 +20°C° 0 mm 2 mps 759 mmHg 90%

    27 April, Saturday

    Time Temperature Precipitation Wind Pressure Humidity
    00:00 +19°C° 0 mm 2 mps 759 mmHg 89%
    01:00 +19°C° 0 mm 2 mps 759 mmHg 89%
    02:00 +19°C° 0 mm 2 mps 759 mmHg 83%
    03:00 +19°C° 0 mm 3 mps 759 mmHg 77%
    04:00 +19°C° 0 mm 4 mps 759 mmHg 70%
    05:00 +19°C° 0 mm 5 mps 759 mmHg 70%
    06:00 +19°C° 0 mm 5 mps 760 mmHg 70%
    07:00 +19°C° 0 mm 6 mps 761 mmHg 70%
    08:00 +21°C° 0 mm 6 mps 761 mmHg 67%
    09:00 +22°C° 0 mm 6 mps 761 mmHg 63%
    10:00 +24°C° 0 mm 6 mps 761 mmHg 60%
    11:00 +26°C° 0 mm 6 mps 761 mmHg 58%
    12:00 +26°C° 0 mm 5 mps 760 mmHg 56%
    13:00 +27°C° 0 mm 5 mps 760 mmHg 55%
    14:00 +26°C° 0 mm 5 mps 760 mmHg 59%
    15:00 +25°C° 0 mm 5 mps 760 mmHg 64%
    16:00 +23°C° 0 mm 5 mps 760 mmHg 68%
    17:00 +22°C° 0 mm 5 mps 760 mmHg 73%
    18:00 +21°C° 0 mm 4 mps 761 mmHg 78%
    19:00 +19°C° 0 mm 4 mps 761 mmHg 83%
    20:00 +19°C° 0 mm 3 mps 761 mmHg 84%
    21:00 +19°C° 0 mm 3 mps 761 mmHg 85%
    22:00 +18°C° 0 mm 2 mps 762 mmHg 87%
    23:00 +18°C° 0 mm 2 mps 761 mmHg 88%

    28 April, Sunday

    Time Temperature Precipitation Wind Pressure Humidity
    00:00 +18°C° 0 mm 2 mps 761 mmHg 89%
    01:00 +19°C° 0 mm 1 mps 761 mmHg 90%
    02:00 +19°C° 0 mm 1 mps 761 mmHg 91%
    03:00 +18°C° 0 mm 1 mps 761 mmHg 92%
    04:00 +18°C° 0 mm 1 mps 760 mmHg 92%
    05:00 +18°C° 0 mm 1 mps 761 mmHg 91%
    06:00 +18°C° 0 mm 1 mps 761 mmHg 90%
    07:00 +19°C° 0 mm 1 mps 761 mmHg 89%
    08:00 +21°C° 0 mm 1 mps 761 mmHg 78%
    09:00 +23°C° 0 mm 1 mps 761 mmHg 67%
    10:00 +25°C° 0 mm 1 mps 761 mmHg 56%
    11:00 +26°C° 0 mm 1 mps 761 mmHg 51%
    12:00 +28°C° 0 mm 1 mps 760 mmHg 45%
    13:00 +29°C° 0 mm 1 mps 759 mmHg 40%
    14:00 +28°C° 0 mm 2 mps 759 mmHg 45%
    15:00 +27°C° 0 mm 3 mps 759 mmHg 50%
    16:00 +26°C° 0 mm 3 mps 759 mmHg 55%
    17:00 +24°C° 0 mm 3 mps 760 mmHg 65%
    18:00 +22°C° 0 mm 3 mps 761 mmHg 75%
    19:00 +20°C° 0 mm 3 mps 761 mmHg 85%
    20:00 +19°C° 0 mm 3 mps 761 mmHg 85%
    21:00 +19°C° 0 mm 3 mps 762 mmHg 85%
    22:00 +19°C° 0 mm 3 mps 762 mmHg 85%
    23:00 +18°C° 0 mm 3 mps 762 mmHg 84%
    Show more